DAL162 MMMX-KLAX

Flight info

Callsign DAL162
Flight time N/A
Altitude 36000
Route ATURO2A ATURO UT134 ZCL DCT AVISU UT60 AXASA UT41 ASUTA DCT AMMOR OLAAA2
Aircraft A21N/M-SDE2E3FGHIRWXY/LB1

Departure

Time 2026-05-06 00:52
Airport Mexico City Benito Juárez International Airport (MMMX)

Arrival

Time N/A
Airport Los Angeles International Airport (KLAX)
Time Latitude Longitude Altitude Speed Heading
2026-05-06 00:33 19.42293 -99.08091 7305 ft 0 kts 163°
2026-05-06 00:41 19.42295 -99.08091 7305 ft 2 kts 163°
2026-05-06 00:42 19.42311 -99.08096 7305 ft 2 kts 164°
2026-05-06 00:42 19.42327 -99.08101 7305 ft 2 kts 166°
2026-05-06 00:42 19.42343 -99.08105 7305 ft 2 kts 165°
2026-05-06 00:42 19.42359 -99.08109 7305 ft 2 kts 165°
2026-05-06 00:43 19.42375 -99.08114 7305 ft 2 kts 165°
2026-05-06 00:43 19.42390 -99.08118 7305 ft 2 kts 166°
2026-05-06 00:43 19.42406 -99.08122 7305 ft 2 kts 172°
2026-05-06 00:43 19.42423 -99.08122 7305 ft 2 kts 191°
2026-05-06 00:44 19.42438 -99.08116 7305 ft 2 kts 210°
2026-05-06 00:44 19.42451 -99.08106 7305 ft 2 kts 223°
2026-05-06 00:44 19.42462 -99.08093 7305 ft 2 kts 240°
2026-05-06 00:44 19.42465 -99.08087 7305 ft 0 kts 238°
2026-05-06 00:46 19.42460 -99.08095 7305 ft 5 kts 238°
2026-05-06 00:46 19.42437 -99.08135 7305 ft 7 kts 238°
2026-05-06 00:46 19.42409 -99.08183 7305 ft 8 kts 238°
2026-05-06 00:47 19.42399 -99.08207 7305 ft 4 kts 273°
2026-05-06 00:47 19.42433 -99.08238 7305 ft 8 kts 330°
2026-05-06 00:47 19.42494 -99.08273 7305 ft 11 kts 332°
2026-05-06 00:47 19.42560 -99.08308 7305 ft 10 kts 334°
2026-05-06 00:48 19.42624 -99.08342 7305 ft 10 kts 332°
2026-05-06 00:48 19.42667 -99.08367 7305 ft 0 kts 330°
2026-05-06 00:49 19.42690 -99.08381 7305 ft 9 kts 330°
2026-05-06 00:49 19.42755 -99.08420 7305 ft 12 kts 330°
2026-05-06 00:49 19.42829 -99.08465 7305 ft 13 kts 330°
2026-05-06 00:50 19.42908 -99.08511 7304 ft 13 kts 331°
2026-05-06 00:50 19.42932 -99.08525 7304 ft 6 kts 330°
2026-05-06 00:50 19.42986 -99.08556 7303 ft 11 kts 339°
2026-05-06 00:50 19.43046 -99.08531 7304 ft 2 kts 56°
2026-05-06 00:51 19.43047 -99.08531 7304 ft 1 kts 56°
2026-05-06 00:51 19.43123 -99.08401 7303 ft 44 kts 59°
2026-05-06 00:51 19.43358 -99.07980 7307 ft 88 kts 59°
2026-05-06 00:51 19.43753 -99.07277 7306 ft 136 kts 59°
2026-05-06 00:52 19.44329 -99.06245 7334 ft 183 kts 59°
2026-05-06 00:52 19.44997 -99.05082 7756 ft 190 kts 60°
2026-05-06 00:52 19.45721 -99.03814 7861 ft 208 kts 59°
2026-05-06 00:52 19.46478 -99.02484 8391 ft 216 kts 60°
2026-05-06 00:53 19.47251 -99.01092 8813 ft 225 kts 60°
2026-05-06 00:53 19.48073 -98.99624 9021 ft 238 kts 59°
2026-05-06 00:53 19.48941 -98.98078 9187 ft 251 kts 59°
2026-05-06 00:53 19.49860 -98.96442 9277 ft 266 kts 59°
2026-05-06 00:54 19.50824 -98.94725 9502 ft 273 kts 59°
2026-05-06 00:54 19.51797 -98.92992 9992 ft 274 kts 60°
2026-05-06 00:54 19.52776 -98.91259 10535 ft 275 kts 57°
2026-05-06 00:54 19.53922 -98.89630 11072 ft 277 kts 50°
2026-05-06 00:55 19.55279 -98.88204 11636 ft 280 kts 38°
2026-05-06 00:55 19.56983 -98.87203 12157 ft 284 kts 18°
2026-05-06 00:55 19.58950 -98.86990 12651 ft 288 kts 350°
2026-05-06 00:55 19.60877 -98.87579 13246 ft 289 kts 339°
2026-05-06 00:56 19.62738 -98.88380 13864 ft 290 kts 337°
2026-05-06 00:56 19.64601 -98.89223 14410 ft 292 kts 337°
2026-05-06 00:56 19.66475 -98.90073 14930 ft 295 kts 337°
2026-05-06 00:56 19.68374 -98.90930 15448 ft 298 kts 338°
2026-05-06 00:57 19.70291 -98.91792 16186 ft 301 kts 338°
2026-05-06 00:57 19.72200 -98.92647 16727 ft 303 kts 338°
2026-05-06 00:57 19.74151 -98.93520 17267 ft 306 kts 338°
2026-05-06 00:57 19.76122 -98.94402 17790 ft 309 kts 338°
2026-05-06 00:58 19.78108 -98.95290 18320 ft 311 kts 338°
2026-05-06 00:58 19.80115 -98.96188 18802 ft 315 kts 338°
2026-05-06 00:58 19.82147 -98.97097 19213 ft 320 kts 338°
2026-05-06 00:58 19.84214 -98.98022 19626 ft 324 kts 338°
2026-05-06 00:59 19.86299 -98.98956 20056 ft 327 kts 338°
2026-05-06 00:59 19.88384 -98.99889 20415 ft 333 kts 338°
2026-05-06 00:59 19.90536 -99.00853 20833 ft 337 kts 337°
2026-05-06 00:59 19.92705 -99.01825 21256 ft 340 kts 337°
2026-05-06 01:00 19.94877 -99.02798 21589 ft 346 kts 338°
2026-05-06 01:00 19.97109 -99.03799 21969 ft 350 kts 337°
2026-05-06 01:00 19.99356 -99.04807 22411 ft 352 kts 337°
2026-05-06 01:00 20.01628 -99.05826 22753 ft 358 kts 338°
2026-05-06 01:01 20.03932 -99.06860 23136 ft 360 kts 337°
2026-05-06 01:01 20.06108 -99.07837 23516 ft 363 kts 337°
2026-05-06 01:01 20.08408 -99.08869 23765 ft 368 kts 338°
2026-05-06 01:01 20.10773 -99.09932 24057 ft 370 kts 337°
2026-05-06 01:02 20.13150 -99.10999 24381 ft 374 kts 337°
2026-05-06 01:02 20.15545 -99.12076 24662 ft 377 kts 337°
2026-05-06 01:02 20.17896 -99.13133 25033 ft 378 kts 337°
2026-05-06 01:02 20.20330 -99.14227 25354 ft 382 kts 336°
2026-05-06 01:03 20.22790 -99.15335 25647 ft 385 kts 336°
2026-05-06 01:03 20.25261 -99.16446 25988 ft 386 kts 336°
2026-05-06 01:03 20.27744 -99.17564 26282 ft 389 kts 335°
2026-05-06 01:03 20.30211 -99.18676 26579 ft 392 kts 335°
2026-05-06 01:04 20.32730 -99.19811 26887 ft 394 kts 335°
2026-05-06 01:04 20.35261 -99.20952 27152 ft 397 kts 335°
2026-05-06 01:04 20.37810 -99.22101 27426 ft 399 kts 335°
2026-05-06 01:04 20.40378 -99.23260 27681 ft 402 kts 335°
2026-05-06 01:05 20.42947 -99.24453 27933 ft 403 kts 332°
2026-05-06 01:05 20.45359 -99.25969 28171 ft 404 kts 322°
2026-05-06 01:05 20.47607 -99.27775 28422 ft 405 kts 319°
2026-05-06 01:05 20.49783 -99.29682 28644 ft 407 kts 317°
2026-05-06 01:06 20.51940 -99.31654 28878 ft 408 kts 316°
2026-05-06 01:06 20.54091 -99.33646 29110 ft 411 kts 316°
2026-05-06 01:06 20.56227 -99.35622 29346 ft 412 kts 316°
2026-05-06 01:06 20.58399 -99.37617 29638 ft 413 kts 316°
2026-05-06 01:07 20.60593 -99.39616 29869 ft 415 kts 316°
2026-05-06 01:07 20.62795 -99.41615 30043 ft 417 kts 316°
2026-05-06 01:07 20.65011 -99.43621 30221 ft 419 kts 316°
2026-05-06 01:07 20.67240 -99.45635 30433 ft 420 kts 316°
2026-05-06 01:08 20.69479 -99.47657 30579 ft 423 kts 317°
2026-05-06 01:08 20.71730 -99.49693 30743 ft 425 kts 317°
2026-05-06 01:08 20.73961 -99.51710 30959 ft 426 kts 316°
2026-05-06 01:08 20.76222 -99.53761 31205 ft 427 kts 316°
2026-05-06 01:09 20.78484 -99.55818 31389 ft 428 kts 316°
2026-05-06 01:09 20.80762 -99.57880 31568 ft 430 kts 317°
2026-05-06 01:09 20.83048 -99.59947 31753 ft 431 kts 317°
2026-05-06 01:09 20.85339 -99.62020 31942 ft 432 kts 317°
2026-05-06 01:10 20.87635 -99.64101 32164 ft 432 kts 316°
2026-05-06 01:10 20.89924 -99.66178 32414 ft 432 kts 316°
2026-05-06 01:10 20.92215 -99.68259 32592 ft 433 kts 316°
2026-05-06 01:10 20.94485 -99.70320 32742 ft 435 kts 316°
2026-05-06 01:11 20.96791 -99.72415 32897 ft 436 kts 316°
2026-05-06 01:11 20.99106 -99.74519 33062 ft 437 kts 316°
2026-05-06 01:11 21.01418 -99.76625 33209 ft 437 kts 315°
2026-05-06 01:11 21.03575 -99.78905 33364 ft 435 kts 307°
2026-05-06 01:12 21.05460 -99.81431 33479 ft 435 kts 303°
2026-05-06 01:12 21.07254 -99.84037 33625 ft 435 kts 302°
2026-05-06 01:12 21.09007 -99.86688 33739 ft 437 kts 301°
2026-05-06 01:12 21.10739 -99.89361 33863 ft 437 kts 301°
2026-05-06 01:13 21.12444 -99.92011 33967 ft 438 kts 301°
2026-05-06 01:13 21.14175 -99.94705 34079 ft 439 kts 302°
2026-05-06 01:13 21.15909 -99.97395 34184 ft 440 kts 301°
2026-05-06 01:13 21.17652 -100.00095 34287 ft 441 kts 302°
2026-05-06 01:14 21.21157 -100.05502 34508 ft 443 kts 301°
2026-05-06 01:14 21.22916 -100.08215 34620 ft 444 kts 301°
2026-05-06 01:14 21.24679 -100.10933 34719 ft 444 kts 302°
2026-05-06 01:15 21.26443 -100.13654 34829 ft 445 kts 302°
2026-05-06 01:15 21.28203 -100.16370 34934 ft 446 kts 302°
2026-05-06 01:15 21.29948 -100.19066 35042 ft 447 kts 302°
2026-05-06 01:15 21.31718 -100.21802 35166 ft 447 kts 301°
2026-05-06 01:16 21.33488 -100.24540 35308 ft 447 kts 301°
2026-05-06 01:16 21.35259 -100.27280 35413 ft 447 kts 301°
2026-05-06 01:16 21.38808 -100.32776 35544 ft 449 kts 301°
2026-05-06 01:17 21.42364 -100.38280 35544 ft 449 kts 301°
2026-05-06 01:17 21.45917 -100.43795 35549 ft 449 kts 301°
2026-05-06 01:18 21.49438 -100.49267 35533 ft 448 kts 301°
2026-05-06 01:18 21.52976 -100.54770 35534 ft 447 kts 301°
2026-05-06 01:19 21.56508 -100.60270 35543 ft 447 kts 301°
2026-05-06 01:19 21.60043 -100.65776 35537 ft 447 kts 301°
2026-05-06 01:20 21.63549 -100.71243 35534 ft 447 kts 301°
2026-05-06 01:20 21.67076 -100.76748 35545 ft 447 kts 301°
2026-05-06 01:21 21.70602 -100.82259 35546 ft 447 kts 301°
2026-05-06 01:21 21.74128 -100.87774 35557 ft 447 kts 301°
2026-05-06 01:22 21.77649 -100.93286 35561 ft 447 kts 301°
2026-05-06 01:22 21.81165 -100.98796 35554 ft 446 kts 301°
2026-05-06 01:23 21.84650 -101.04266 35563 ft 446 kts 301°
2026-05-06 01:23 21.88153 -101.09768 35562 ft 446 kts 301°
2026-05-06 01:24 21.91659 -101.15279 35559 ft 446 kts 301°
2026-05-06 01:24 21.95160 -101.20789 35551 ft 446 kts 301°
2026-05-06 01:25 21.98658 -101.26299 35551 ft 446 kts 300°
2026-05-06 01:25 22.02159 -101.31808 35566 ft 445 kts 301°
2026-05-06 01:26 22.05636 -101.37267 35559 ft 444 kts 301°
2026-05-06 01:26 22.09130 -101.42750 35555 ft 443 kts 300°
2026-05-06 01:27 22.12615 -101.48229 35560 ft 443 kts 300°
2026-05-06 01:27 22.16096 -101.53708 35562 ft 443 kts 300°
2026-05-06 01:28 22.19575 -101.59191 35561 ft 443 kts 300°
2026-05-06 01:28 22.23026 -101.64635 35561 ft 443 kts 300°
2026-05-06 01:29 22.26501 -101.70121 35564 ft 442 kts 300°
2026-05-06 01:29 22.29964 -101.75595 35562 ft 441 kts 300°
2026-05-06 01:30 22.33411 -101.81051 35567 ft 441 kts 300°
2026-05-06 01:30 22.36856 -101.86507 35565 ft 440 kts 300°
2026-05-06 01:31 22.40302 -101.91971 35567 ft 440 kts 300°
2026-05-06 01:31 22.43745 -101.97436 35567 ft 440 kts 300°
2026-05-06 01:32 22.47187 -102.02905 35568 ft 440 kts 300°
2026-05-06 01:32 22.50624 -102.08371 35570 ft 439 kts 300°
2026-05-06 01:33 22.54037 -102.13804 35571 ft 439 kts 300°
2026-05-06 01:33 22.57469 -102.19275 35583 ft 439 kts 300°
2026-05-06 01:34 22.60896 -102.24743 35582 ft 439 kts 300°
2026-05-06 01:34 22.64323 -102.30216 35584 ft 439 kts 300°
2026-05-06 01:35 22.67740 -102.35679 35590 ft 438 kts 300°
2026-05-06 01:35 22.71132 -102.41107 35656 ft 438 kts 300°
2026-05-06 01:36 22.74542 -102.46570 35732 ft 438 kts 300°
2026-05-06 01:36 22.77930 -102.52003 35816 ft 437 kts 299°
2026-05-06 01:37 22.81333 -102.57467 35900 ft 437 kts 300°
2026-05-06 01:37 22.84713 -102.62898 35957 ft 437 kts 300°
2026-05-06 01:38 22.88109 -102.68363 35971 ft 437 kts 299°
2026-05-06 01:38 22.89774 -102.71082 36160 ft 434 kts 299°
2026-05-06 01:38 22.91426 -102.73836 36216 ft 436 kts 298°
2026-05-06 01:39 22.94715 -102.79389 36167 ft 437 kts 298°
2026-05-06 01:39 22.97991 -102.84929 36091 ft 436 kts 298°
2026-05-06 01:40 23.01247 -102.90425 36009 ft 436 kts 298°
2026-05-06 01:40 23.04524 -102.95956 35941 ft 435 kts 298°
2026-05-06 01:41 23.07799 -103.01485 35842 ft 435 kts 298°
2026-05-06 01:41 23.11071 -103.07022 35840 ft 435 kts 298°
2026-05-06 01:42 23.14010 -103.11996 35838 ft 435 kts 298°
2026-05-06 01:42 23.17276 -103.17526 35848 ft 435 kts 298°
2026-05-06 01:43 23.20534 -103.23051 35846 ft 434 kts 297°
2026-05-06 01:43 23.23764 -103.28533 35842 ft 433 kts 297°
2026-05-06 01:44 23.27006 -103.34046 35845 ft 433 kts 297°
2026-05-06 01:44 23.30246 -103.39559 35850 ft 432 kts 297°
2026-05-06 01:45 23.33483 -103.45072 35847 ft 432 kts 297°
2026-05-06 01:45 23.36694 -103.50549 35857 ft 432 kts 297°
2026-05-06 01:46 23.39907 -103.56033 35855 ft 432 kts 297°
2026-05-06 01:46 23.43130 -103.61539 35846 ft 432 kts 297°
2026-05-06 01:47 23.46358 -103.67061 35864 ft 431 kts 297°
2026-05-06 01:47 23.49572 -103.72566 35849 ft 430 kts 297°
2026-05-06 01:48 23.52755 -103.78023 35844 ft 430 kts 297°
2026-05-06 01:48 23.55946 -103.83502 35837 ft 429 kts 297°
2026-05-06 01:49 23.59146 -103.89000 35836 ft 430 kts 297°
2026-05-06 01:49 23.62423 -103.94425 35810 ft 433 kts 303°
2026-05-06 01:50 23.66429 -103.99330 35813 ft 437 kts 307°
2026-05-06 01:50 23.70608 -104.04084 35812 ft 438 kts 308°
2026-05-06 01:51 23.74816 -104.08803 35805 ft 438 kts 308°
2026-05-06 01:51 23.79005 -104.13508 35793 ft 437 kts 308°
2026-05-06 01:52 23.83221 -104.18285 35789 ft 436 kts 308°
2026-05-06 01:52 23.87399 -104.23032 35787 ft 436 kts 307°
2026-05-06 01:53 23.91607 -104.27815 35847 ft 436 kts 307°
2026-05-06 01:53 23.95813 -104.32597 35929 ft 436 kts 307°
2026-05-06 01:54 24.00012 -104.37373 36013 ft 436 kts 307°
2026-05-06 01:54 24.04187 -104.42130 36092 ft 436 kts 307°
2026-05-06 01:55 24.08386 -104.46919 36152 ft 436 kts 307°
2026-05-06 01:55 24.10774 -104.49644 36153 ft 436 kts 307°